Regional Weather Roundup
Issued by NWS Little Rock, AR

Home | Current Version | Previous Version | Text Only | Print | Product List | Glossary On
Versions: 1 2 3 4 5 6 7 8 9 10 11 12 13 14 15 16 17 18 19 20 21 22 23 24 25 26 27 28 29 30 31 32 33 34 35 36 37 38 39 40 41 42 43 44 45 46 47 48 49 50
000
ASUS44 KLZK 020405
RWRLZK

WEATHER ROUNDUP FOR ARKANSAS
NATIONAL WEATHER SERVICE LITTLE ROCK AR
1100 PM CDT MON SEP 01 2014

NOTE: "FAIR" INDICATES FEW OR NO CLOUDS BELOW 12,000 FEET WITH NO
SIGNIFICANT WEATHER AND/OR OBSTRUCTIONS TO VISIBILITY.

ARZ001-003-010-029-020500-
NORTHWEST ARKANSAS

CITY           SKY/WX    TMP DP  RH WIND       PRES   REMARKS
FAYETTEVILLE   CLOUDY    79  69  71 S10       29.93R
FORT SMITH     PTCLDY    82  70  66 SE5       29.88S HX  86
HARRISON       CLOUDY    77  70  79 SE7       29.95R
BENTONVILLE    CLOUDY    79  70  73 S7        29.93F
ROGERS         CLOUDY    78  69  73 S12       29.93F
HIGHFILL       CLOUDY    77  69  76 S7        29.91F
$$

ARZ004-005-016-020500-
NORTH CENTRAL ARKANSAS

CITY           SKY/WX    TMP DP  RH WIND       PRES   REMARKS
BATESVILLE     CLEAR     81  72  74 S5        29.95R
FLIPPIN        CLOUDY    81  66  61 SE3       29.94R
MTN HOME       CLOUDY    77  70  79 S5        29.94R
$$

ARZ040-041-020500-
WEST CENTRAL ARKANSAS

CITY           SKY/WX    TMP DP  RH WIND       PRES   REMARKS
MENA           CLEAR     82  73  74 CALM      29.97R HX  88
MOUNT IDA      CLEAR     81  72  74 CALM      29.93R HX  85
$$

ARZ009-017-025-026-028-020500-
NORTHEAST ARKANSAS

CITY           SKY/WX    TMP DP  RH WIND       PRES   REMARKS
CORNING          N/A     77  73  88 S8        29.93S
JONESBORO      CLEAR     78  72  81 S5        29.94S
NEWPORT        CLEAR     78  74  87 CALM      29.95R
WALNUT RIDGE   PTCLDY    75  59  57 S6        29.93S
BLYTHEVILLE    CLEAR     78  74  87 S3        29.96R
$$

ARZ022-023-033-042-044-020500-
CENTRAL ARKANSAS

CITY           SKY/WX    TMP DP  RH WIND       PRES   REMARKS
LITTLE ROCK    CLEAR     79  73  82 S7        29.93R
N LITTLE ROCK  CLEAR     80  76  85 S9        29.93R HX  86
JACKSONVILLE   CLEAR     80  74  81 S5        29.93R HX  85
SEARCY         CLEAR     78  75  90 W6        29.94R
HOT SPRINGS    CLEAR     81  73  76 VRB5      29.94R HX  86
RUSSELLVILLE   CLEAR     79  72  79 SE3       29.94R
CLINTON        FAIR      79  73  83 CALM      29.95R
$$

ARZ036-020500-
EAST ARKANSAS

CITY           SKY/WX    TMP DP  RH WIND       PRES   REMARKS
WEST MEMPHIS   CLEAR     79  75  87 S10       29.94S
$$

ARZ050-053-066-070-073-020500-
SOUTHWEST ARKANSAS

CITY           SKY/WX    TMP DP  RH WIND       PRES   REMARKS
ARKADELPHIA    FAIR      80  76  87 S5        29.93R HX  85
CAMDEN         CLEAR     79  73  83 S7        29.93S
TEXARKANA      CLEAR     82  74  76 S10       29.93R HX  88
EL DORADO      CLEAR     78  74  87 S8        29.95F
DE QUEEN       CLEAR     81  73  76 CALM      29.90R HX  86
$$

ARZ056-057-069-020500-
SOUTHEAST ARKANSAS

CITY           SKY/WX    TMP DP  RH WIND       PRES   REMARKS
PINE BLUFF     CLEAR     79  72  79 S14       29.94R
STUTTGART      CLEAR     81  73  78 S12       29.94S HX  85
MONTICELLO     CLEAR     78  72  81 S6        29.95F

$$





USA.gov is the U.S. government's official web portal to all federal, state and local government web resources and services.